Oceanside, California, United States (92049)
Lat: 33.20N, Lon: 117.38W
Wx Zone: CAZ043
Local Info
Past Weather Observations for Today

NOTE: This archive is for the closest National Weather Service station to Oceanside. Information may differ from the station used for current weather conditions.

Click here for Long-term Archive

Time Weather Temperature Dewpoint Humidity Pressure Winds Precip Visibility
10:52
Mostly Cloudy
68°F / 20°C 54°F / 12°C 60% 29.98 in
(1015 mb)
SSW 6.9 mph
(SSW 11 kph)
- 10SM
10:40
Overcast
68°F / 20°C 54°F / 12°C 60% 29.98 in
(1015 mb)
W 5.8 mph
(W 9 kph)
- 10SM
09:52
Partly Cloudy
66°F / 19°C 54°F / 12°C 64% 29.98 in
(1015 mb)
Calm - 10SM
08:52
Clear
64°F / 18°C 55°F / 13°C 73% 29.98 in
(1015 mb)
ENE 3.5 mph
(ENE 6 kph)
- 10SM
07:52
Clear
61°F / 16°C 55°F / 13°C 83% 29.98 in
(1015 mb)
NE 4.6 mph
(NE 7 kph)
- 8SM
06:52
Partly Cloudy
55°F / 13°C 54°F / 12°C 94% 29.95 in
(1014 mb)
Calm - 7SM
05:52
Mostly Cloudy
59°F / 15°C 54°F / 12°C 82% 29.95 in
(1014 mb)
Calm 0.06 in
(1.52 mm)
10SM
05:08
Overcast
Light Rain
57°F / 14°C 55°F / 13°C 94% 29.95 in
(1014 mb)
NW 6.9 mph
(NW 11 kph)
0.06 in
(1.52 mm)
5SM
05:04
Overcast
Light Rain
57°F / 14°C 55°F / 13°C 94% 29.95 in
(1014 mb)
NW 9.2 mph
(NW 15 kph)
0.06 in
(1.52 mm)
2SM
04:52
Overcast
Light Rain
57°F / 14°C 57°F / 14°C 100% 29.95 in
(1014 mb)
NE 3.5 mph
(NE 6 kph)
0.00 in
(0.00 mm)
8SM
04:40
Overcast
57°F / 14°C 57°F / 14°C 100% 29.95 in
(1014 mb)
Calm 0.00 in
(0.00 mm)
9SM
03:52
Overcast
57°F / 14°C 55°F / 13°C 94% 29.92 in
(1013 mb)
Calm 0.05 in
(1.27 mm)
10SM
03:44
Overcast
57°F / 14°C 57°F / 14°C 100% 29.92 in
(1013 mb)
Calm 0.05 in
(1.27 mm)
10SM
03:15
Overcast
Rain
57°F / 14°C 55°F / 13°C 94% 29.95 in
(1014 mb)
Calm 0.02 in
(0.51 mm)
3SM
03:00
Overcast
59°F / 15°C 55°F / 13°C 88% 29.95 in
(1014 mb)
Calm 0.00 in
(0.00 mm)
10SM
02:52
Overcast
Light Rain
59°F / 15°C 55°F / 13°C 88% 29.95 in
(1014 mb)
SE 3.5 mph
(SE 6 kph)
0.09 in
(2.29 mm)
6SM
02:33
Overcast
Light Rain
57°F / 14°C 55°F / 13°C 94% 29.95 in
(1014 mb)
Calm 0.07 in
(1.78 mm)
4SM
02:28
Overcast
Rain
57°F / 14°C 55°F / 13°C 94% 29.95 in
(1014 mb)
S 3.5 mph
(S 6 kph)
0.07 in
(1.78 mm)
2SM
02:14
Overcast
Light Rain
57°F / 14°C 55°F / 13°C 94% 29.95 in
(1014 mb)
Calm 0.01 in
(0.25 mm)
9SM
02:03
Overcast
Light Rain
57°F / 14°C 54°F / 12°C 88% 29.95 in
(1014 mb)
Calm 0.00 in
(0.00 mm)
8SM
01:52
Mostly Cloudy
Light Rain
55°F / 13°C 54°F / 12°C 94% 29.95 in
(1014 mb)
Calm 0.01 in
(0.25 mm)
6SM
00:52
Partly Cloudy
57°F / 14°C 55°F / 13°C 94% 29.98 in
(1015 mb)
Calm - 10SM
Time Weather Temperature Dewpoint Humidity Pressure Winds Precip Visibility


Weather for websites

WeatherForYou.com, LLC is not responsible for any damages or problems caused by this service. Current weather conditions are obtained from the closest station including government and personal stations which may have varying degrees of accuracy. Weather forecasts are derived from the NOAA NDFD. Like all things, this site belongs to Jesus Christ... He just trusts me to maintain it. If you have any questions or comments email webmaster@weatherforyou.com

Copyright © 2014, WeatherForYou.com LLC. All rights reserved.